TimeEDT,TemperatureF,Dew PointF,Humidity,Sea Level PressureIn,VisibilityMPH,Wind Direction,Wind SpeedMPH,Gust SpeedMPH,PrecipitationIn,Events,Conditions,WindDirDegrees,DateUTC
12:51 AM,46.0,35.1,66,30.21,10.0,Calm,Calm,-,N/A,,Scattered Clouds,0,2012-10-12 04:51:00
1:51 AM,42.1,36.0,79,30.21,10.0,Calm,Calm,-,N/A,,Scattered Clouds,0,2012-10-12 05:51:00
2:51 AM,44.6,33.8,66,30.18,10.0,Calm,Calm,-,N/A,,Scattered Clouds,0,2012-10-12 06:51:00
3:51 AM,45.0,34.0,65,30.19,10.0,SSE,3.5,-,N/A,,Mostly Cloudy,160,2012-10-12 07:51:00
4:51 AM,46.0,35.1,66,30.21,10.0,Calm,Calm,-,0.00,,Mostly Cloudy,0,2012-10-12 08:51:00
5:51 AM,44.6,37.4,76,30.22,10.0,Calm,Calm,-,N/A,,Overcast,0,2012-10-12 09:51:00
6:51 AM,46.0,37.0,71,30.26,10.0,North,6.9,-,N/A,,Overcast,360,2012-10-12 10:51:00
7:51 AM,46.9,39.0,74,30.29,10.0,North,13.8,-,N/A,,Overcast,10,2012-10-12 11:51:00
8:51 AM,46.4,35.6,66,30.32,10.0,North,10.4,-,N/A,,Overcast,10,2012-10-12 12:51:00
9:51 AM,46.4,33.8,62,30.35,10.0,NNE,6.9,-,N/A,,Overcast,30,2012-10-12 13:51:00
10:51 AM,48.0,34.0,58,30.39,10.0,North,10.4,-,N/A,,Scattered Clouds,10,2012-10-12 14:51:00
11:51 AM,51.8,33.8,50,30.39,10.0,Variable,6.9,-,N/A,,Scattered Clouds,0,2012-10-12 15:51:00
12:51 PM,55.0,30.0,38,30.38,10.0,North,10.4,-,N/A,,Scattered Clouds,360,2012-10-12 16:51:00
1:51 PM,55.9,30.0,37,30.38,10.0,Variable,5.8,-,N/A,,Scattered Clouds,0,2012-10-12 17:51:00
2:51 PM,57.2,26.6,31,30.35,10.0,NNW,8.1,-,N/A,,Partly Cloudy,340,2012-10-12 18:51:00
3:51 PM,57.2,26.6,31,30.35,10.0,Variable,4.6,-,N/A,,Partly Cloudy,0,2012-10-12 19:51:00
4:51 PM,57.9,26.1,30,30.34,10.0,ENE,6.9,-,N/A,,Clear,60,2012-10-12 20:51:00
5:51 PM,57.0,26.1,30,30.35,10.0,East,5.8,-,N/A,,Clear,80,2012-10-12 21:51:00
6:51 PM,53.6,24.8,33,30.35,10.0,NE,5.8,-,N/A,,Clear,50,2012-10-12 22:51:00
7:51 PM,50.0,27.0,41,30.38,10.0,NE,4.6,-,N/A,,Clear,40,2012-10-12 23:51:00
8:51 PM,46.9,28.0,48,30.38,10.0,ENE,5.8,-,N/A,,Clear,60,2012-10-13 00:51:00
9:51 PM,46.4,28.4,50,30.38,10.0,ENE,5.8,-,N/A,,Clear,70,2012-10-13 01:51:00
10:51 PM,43.0,28.0,56,30.39,10.0,East,5.8,-,N/A,,Clear,80,2012-10-13 02:51:00
11:51 PM,42.1,28.0,58,30.39,10.0,East,5.8,-,N/A,,Clear,90,2012-10-13 03:51:00